Location: Radomski Observatory
(40.2854°N, 79.5145°W)
Time: 03:15:20
(UTC-04:00)

Cosmos 1072 Rocket - Visible Passes

Search period start: 29 June 2016 00:00
Search period end: 09 July 2016 00:00
Orbit: 950 x 1008 km, 82.9° (Epoch: 28 June)

Date Brightness Start Highest point End Pass type
(mag) Time Alt. Az. Time Alt. Az. Time Alt. Az.
29 Jun 7.3 04:45:52 10° ESE 04:48:20 13° ENE 04:50:48 10° NE visible
30 Jun 6.9 05:09:19 10° SE 05:14:11 24° E 05:19:08 10° NNE visible
02 Jul 7.4 04:20:32 10° E 04:22:09 11° ENE 04:23:46 10° ENE visible
03 Jul 6.9 04:43:21 10° SE 04:47:59 22° E 04:52:40 10° NE visible
04 Jul 5.9 05:08:13 10° SSE 05:14:00 41° E 05:19:54 10° NNE visible
06 Jul 6.9 04:17:25 10° SE 04:21:47 20° E 04:26:11 10° NE visible
07 Jul 6.0 04:42:06 10° SSE 04:47:46 37° E 04:53:32 10° NNE visible
08 Jul 4.9 05:07:42 10° S 05:13:57 68° E 05:20:18 10° NNE visible
